Estación de Lontue

Ultimos registro cada 15 minutos 26
Estación Fecha / Hora Temperatura Humedad Lluvia Velocidad Dirección Radiación Presion
26 Lontue 06-05-2026 06:15 12,1 83,4 0 3,4 358 0,6 988,1
25 Lontue 06-05-2026 06:00 11,8 84,7 0 2,7 10 0,6 988,2
24 Lontue 06-05-2026 05:45 11,5 84,8 0 0,4 37 0,6 988,3
23 Lontue 06-05-2026 05:30 11,5 86 0 0,8 29 0,6 988,2
22 Lontue 06-05-2026 05:15 9,7 86,4 0 0 28 0,6 988,2
21 Lontue 06-05-2026 05:00 11 86,2 0 0 28 0,6 988,4
20 Lontue 06-05-2026 04:45 11,1 86,7 0 0,4 25 0,6 988,3
19 Lontue 06-05-2026 04:30 11,2 86,9 0 0 25 0,6 988,4
18 Lontue 06-05-2026 04:15 10,6 87 0 0 28 0,6 988,4
17 Lontue 06-05-2026 04:00 11,1 87,8 0 0,4 18 0,6 988,4
16 Lontue 06-05-2026 03:45 11,2 88,9 0 0,4 44 0,6 988,6
15 Lontue 06-05-2026 03:30 10,9 88,6 0 1,1 63 0,6 988,9
14 Lontue 06-05-2026 03:15 10,9 88,9 0 1,9 65 0,6 988,8
13 Lontue 06-05-2026 03:00 10,9 89,7 0 1,5 53 0,6 988,9
12 Lontue 06-05-2026 02:45 10,8 90,2 0 1,1 39 0,6 988,9
11 Lontue 06-05-2026 02:30 11 89,4 0 1,5 32 0,6 989
10 Lontue 06-05-2026 02:15 11,4 88,8 0 1,1 20 0,6 989
9 Lontue 06-05-2026 02:00 11,6 88,6 0 0,8 17 0,6 989,1
8 Lontue 06-05-2026 01:45 11,5 88,3 0 0,8 10 0,6 989,1
7 Lontue 06-05-2026 01:30 11,5 87,8 0 0,8 341 0,6 989
6 Lontue 06-05-2026 01:15 11,8 87,3 0 1,1 341 0,6 988,9
5 Lontue 06-05-2026 01:00 11,8 86,9 0 1,1 343 0,6 989
4 Lontue 06-05-2026 00:45 11,8 87 0 1,5 350 0,6 988,8
3 Lontue 06-05-2026 00:30 12 86,7 0 2,3 355 0,6 989
2 Lontue 06-05-2026 00:15 12,4 85,7 0 1,9 350 0,6 989,2
1 Lontue 06-05-2026 00:00 12,5 85,3 0 2,3 3 0,6 989,3